| time (UTC) | temp F | wind direction | speed MPH | gust MPH | rain 1hr in | rain 24hr in | rain mn in | humidity % | barometer mb |
| 20260503071507 | 46 | 234 | 0.0 | 0.0 | 0.00 | 0.00 | 0.00 | 87 | 930.9 |
| 20260503071006 | 46 | 28 | 0.0 | 0.0 | 0.00 | 0.00 | 0.00 | 87 | 930.9 |
| 20260503070505 | 46 | 39 | 0.0 | 0.0 | 0.00 | 0.00 | 0.00 | 87 | 930.9 |
| 20260503055007 | 49 | 41 | 0.0 | 0.0 | 0.00 | 0.00 | 0.00 | 84 | 930.7 |
| 20260503054506 | 49 | 38 | 0.0 | 0.0 | 0.00 | 0.00 | 0.00 | 84 | 930.7 |
| 20260503054005 | 49 | 337 | 0.0 | 0.0 | 0.00 | 0.00 | 0.00 | 84 | 930.7 |
| 20260503053504 | 49 | 20 | 0.0 | 0.0 | 0.00 | 0.00 | 0.00 | 84 | 930.7 |
| 20260503053003 | 50 | 1 | 0.0 | 0.0 | 0.00 | 0.00 | 0.00 | 84 | 930.7 |
| 20260503052507 | 50 | 31 | 0.0 | 0.0 | 0.00 | 0.00 | 0.00 | 84 | 930.7 |
| 20260503052007 | 50 | 13 | 0.0 | 0.0 | 0.00 | 0.00 | 0.00 | 83 | 930.7 |
| 20260503051506 | 50 | 334 | 0.0 | 0.0 | 0.00 | 0.00 | 0.00 | 83 | 930.7 |
| 20260503051005 | 50 | 143 | 0.0 | 0.0 | 0.00 | 0.00 | 0.00 | 83 | 930.7 |
| 20260503050504 | 51 | 2 | 0.0 | 0.0 | 0.00 | 0.00 | 0.00 | 82 | 930.6 |
| 20260503050003 | 51 | 330 | 1.0 | 0.0 | 0.00 | 0.00 | 0.00 | 82 | 930.5 |
| 20260503045508 | 51 | 50 | 0.0 | 0.0 | 0.00 | 0.00 | 0.00 | 81 | 930.5 |
| 20260503044504 | 52 | 328 | 0.0 | 0.0 | 0.00 | 0.00 | 0.00 | 81 | 930.4 |
| 20260503043003 | 53 | 31 | 0.0 | 0.0 | 0.00 | 0.00 | 0.00 | 80 | 930.4 |
| 20260503042507 | 53 | 38 | 0.0 | 0.0 | 0.00 | 0.00 | 0.00 | 80 | 930.3 |
| 20260503042006 | 53 | 0 | 0.0 | 0.0 | 0.00 | 0.00 | 0.00 | 79 | 930.2 |
| 20260503041505 | 54 | 14 | 1.0 | 0.0 | 0.00 | 0.00 | 0.00 | 79 | 930.2 |
| 20260503041004 | 54 | 326 | 0.0 | 0.0 | 0.00 | 0.00 | 0.00 | 79 | 930.1 |
| 20260503040503 | 54 | 26 | 0.0 | 0.0 | 0.00 | 0.00 | 0.00 | 79 | 930.1 |
| 20260503040008 | 55 | 346 | 0.0 | 0.0 | 0.00 | 0.00 | 0.00 | 78 | 930.0 |
| 20260503035003 | 56 | 14 | 0.0 | 0.0 | 0.00 | 0.00 | 0.00 | 77 | 929.8 |
| 20260503034503 | 56 | 330 | 0.0 | 0.0 | 0.00 | 0.00 | 0.00 | 76 | 929.7 |
| 20260503034007 | 56 | 355 | 1.0 | 0.0 | 0.00 | 0.00 | 0.00 | 76 | 929.7 |
| 20260503033506 | 57 | 53 | 0.0 | 0.0 | 0.00 | 0.00 | 0.00 | 74 | 929.6 |
| 20260503032508 | 58 | 3 | 0.0 | 0.0 | 0.00 | 0.00 | 0.00 | 73 | 929.5 |
| 20260503032007 | 58 | 338 | 0.0 | 0.0 | 0.00 | 0.00 | 0.00 | 72 | 929.4 |
| 20260503031506 | 59 | 24 | 0.0 | 0.0 | 0.00 | 0.00 | 0.00 | 71 | 929.3 |
| 20260503031006 | 59 | 27 | 0.0 | 0.0 | 0.00 | 0.00 | 0.00 | 70 | 929.2 |
| 20260503025505 | 61 | 336 | 0.0 | 0.0 | 0.00 | 0.00 | 0.00 | 68 | 929.0 |
| 20260503025004 | 61 | 345 | 0.0 | 0.0 | 0.00 | 0.00 | 0.00 | 66 | 929.0 |
| 20260503024503 | 62 | 13 | 0.0 | 0.0 | 0.00 | 0.00 | 0.00 | 65 | 928.9 |
| 20260503024002 | 63 | 330 | 0.0 | 0.0 | 0.00 | 0.00 | 0.00 | 64 | 928.9 |
| 20260503023507 | 63 | 61 | 1.0 | 0.0 | 0.00 | 0.00 | 0.00 | 63 | 928.8 |
| 20260503023007 | 64 | 304 | 0.0 | 0.0 | 0.00 | 0.00 | 0.00 | 60 | 928.8 |
| 20260503022529 | 65 | 3 | 0.0 | 0.0 | 0.00 | 0.00 | 0.00 | 59 | 928.8 |
| 20260503022003 | 66 | 11 | 0.0 | 0.0 | 0.00 | 0.00 | 0.00 | 58 | 928.8 |
| 20260503021502 | 67 | 4 | 0.0 | 0.0 | 0.00 | 0.00 | 0.00 | 56 | 928.8 |
| 20260503021007 | 68 | 313 | 0.0 | 0.0 | 0.00 | 0.00 | 0.00 | 54 | 928.7 |
| 20260503020004 | 69 | 245 | 0.0 | 0.0 | 0.00 | 0.00 | 0.00 | 52 | 928.6 |
| 20260503015503 | 70 | 23 | 0.0 | 0.0 | 0.00 | 0.00 | 0.00 | 50 | 928.6 |
| 20260503015007 | 71 | 322 | 0.0 | 0.0 | 0.00 | 0.00 | 0.00 | 48 | 928.6 |
| 20260503014507 | 72 | 184 | 0.0 | 0.0 | 0.00 | 0.00 | 0.00 | 47 | 928.6 |
| 20260503014005 | 73 | 61 | 0.0 | 0.0 | 0.00 | 0.00 | 0.00 | 44 | 928.6 |
| 20260503013504 | 73 | 19 | 0.0 | 0.0 | 0.00 | 0.00 | 0.00 | 39 | 928.5 |
| 20260503013003 | 73 | 19 | 0.0 | 0.0 | 0.00 | 0.00 | 0.00 | 39 | 928.5 |
| 20260503012508 | 74 | 342 | 0.0 | 0.0 | 0.00 | 0.00 | 0.00 | 33 | 928.5 |
| 20260503012006 | 74 | 41 | 0.0 | 0.0 | 0.00 | 0.00 | 0.00 | 32 | 928.5 |
| 20260503011506 | 74 | 202 | 0.0 | 0.0 | 0.00 | 0.00 | 0.00 | 32 | 928.5 |
| 20260503010506 | 75 | 73 | 0.0 | 0.0 | 0.00 | 0.00 | 0.00 | 30 | 928.5 |
| 20260503010006 | 75 | 32 | 4.0 | 0.0 | 0.00 | 0.00 | 0.00 | 30 | 928.5 |
| 20260503005505 | 75 | 352 | 0.0 | 0.0 | 0.00 | 0.00 | 0.00 | 30 | 928.5 |
| 20260503005004 | 75 | 7 | 0.0 | 0.0 | 0.00 | 0.00 | 0.00 | 30 | 928.5 |
| 20260503004502 | 75 | 296 | 4.0 | 0.0 | 0.00 | 0.00 | 0.00 | 29 | 928.6 |
| 20260503004007 | 75 | 346 | 0.0 | 0.0 | 0.00 | 0.00 | 0.00 | 29 | 928.6 |
| 20260503003506 | 75 | 45 | 0.0 | 0.0 | 0.00 | 0.00 | 0.00 | 30 | 928.6 |
| 20260503003005 | 75 | 34 | 0.0 | 0.0 | 0.00 | 0.00 | 0.00 | 30 | 928.6 |
| 20260503002504 | 75 | 332 | 0.0 | 0.0 | 0.00 | 0.00 | 0.00 | 30 | 928.6 |
| 20260503002002 | 75 | 55 | 5.0 | 0.0 | 0.00 | 0.00 | 0.00 | 30 | 928.6 |
| 20260503001507 | 75 | 43 | 0.0 | 0.0 | 0.00 | 0.00 | 0.00 | 30 | 928.5 |
| 20260503000503 | 75 | 256 | 0.0 | 0.0 | 0.00 | 0.00 | 0.00 | 31 | 928.6 |
| 20260503000007 | 75 | 36 | 0.0 | 0.0 | 0.00 | 0.00 | 0.00 | 30 | 928.6 |
| 20260502235507 | 75 | 320 | 0.0 | 0.0 | 0.00 | 0.00 | 0.00 | 31 | 928.6 |
| 20260502235005 | 75 | 97 | 0.0 | 0.0 | 0.00 | 0.00 | 0.00 | 31 | 928.6 |
| 20260502234504 | 75 | 211 | 0.0 | 0.0 | 0.00 | 0.00 | 0.00 | 34 | 928.7 |
| 20260502234003 | 75 | 35 | 0.0 | 0.0 | 0.00 | 0.00 | 0.00 | 30 | 928.7 |
| 20260502233508 | 76 | 354 | 0.0 | 0.0 | 0.00 | 0.00 | 0.00 | 31 | 928.7 |
| 20260502233006 | 76 | 313 | 0.0 | 0.0 | 0.00 | 0.00 | 0.00 | 31 | 928.8 |
| 20260502232505 | 76 | 271 | 0.0 | 0.0 | 0.00 | 0.00 | 0.00 | 30 | 928.8 |
| 20260502231507 | 76 | 249 | 0.0 | 0.0 | 0.00 | 0.00 | 0.00 | 28 | 928.8 |
| 20260502231005 | 76 | 234 | 0.0 | 0.0 | 0.00 | 0.00 | 0.00 | 28 | 929.0 |
| 20260502230505 | 76 | 264 | 0.0 | 0.0 | 0.00 | 0.00 | 0.00 | 28 | 928.9 |
| 20260502230003 | 76 | 201 | 0.0 | 0.0 | 0.00 | 0.00 | 0.00 | 28 | 928.9 |
| 20260502225005 | 77 | 250 | 0.0 | 0.0 | 0.00 | 0.00 | 0.00 | 28 | 929.0 |
| 20260502224007 | 76 | 341 | 0.0 | 0.0 | 0.00 | 0.00 | 0.00 | 29 | 929.0 |
| 20260502223506 | 76 | 282 | 0.0 | 0.0 | 0.00 | 0.00 | 0.00 | 30 | 929.1 |
| 20260502223005 | 76 | 346 | 0.0 | 0.0 | 0.00 | 0.00 | 0.00 | 29 | 929.2 |
| 20260502221504 | 76 | 297 | 0.0 | 0.0 | 0.00 | 0.00 | 0.00 | 29 | 929.4 |
| 20260502221003 | 76 | 12 | 5.0 | 0.0 | 0.00 | 0.00 | 0.00 | 30 | 929.4 |
| 20260502220507 | 76 | 76 | 0.0 | 0.0 | 0.00 | 0.00 | 0.00 | 29 | 929.4 |
| 20260502220006 | 76 | 3 | 0.0 | 0.0 | 0.00 | 0.00 | 0.00 | 30 | 929.5 |
| 20260502215505 | 76 | 243 | 0.0 | 0.0 | 0.00 | 0.00 | 0.00 | 29 | 929.6 |
| 20260502215004 | 76 | 353 | 0.0 | 0.0 | 0.00 | 0.00 | 0.00 | 32 | 929.6 |
| 20260502214006 | 75 | 346 | 0.0 | 0.0 | 0.00 | 0.00 | 0.00 | 30 | 929.6 |
| 20260502213504 | 75 | 259 | 0.0 | 0.0 | 0.00 | 0.00 | 0.00 | 32 | 929.7 |
| 20260502213003 | 75 | 268 | 0.0 | 0.0 | 0.00 | 0.00 | 0.00 | 32 | 929.7 |
| 20260502212508 | 75 | 290 | 0.0 | 0.0 | 0.00 | 0.00 | 0.00 | 35 | 929.8 |
| 20260502212006 | 75 | 246 | 0.0 | 0.0 | 0.00 | 0.00 | 0.00 | 33 | 929.8 |
| 20260502211505 | 74 | 255 | 0.0 | 0.0 | 0.00 | 0.00 | 0.00 | 34 | 929.9 |
| 20260502210004 | 73 | 281 | 0.0 | 0.0 | 0.00 | 0.00 | 0.00 | 34 | 929.9 |
| 20260502205503 | 73 | 256 | 3.0 | 0.0 | 0.00 | 0.00 | 0.00 | 38 | 930.0 |
| 20260502205008 | 72 | 349 | 0.0 | 0.0 | 0.00 | 0.00 | 0.00 | 36 | 930.0 |
| 20260502204506 | 72 | 199 | 0.0 | 0.0 | 0.00 | 0.00 | 0.00 | 37 | 930.1 |
| 20260502203509 | 71 | 127 | 0.0 | 0.0 | 0.00 | 0.00 | 0.00 | 39 | 930.2 |
| 20260502203007 | 70 | 264 | 2.0 | 0.0 | 0.00 | 0.00 | 0.00 | 42 | 930.2 |
| 20260502202003 | 69 | 164 | 0.0 | 0.0 | 0.00 | 0.00 | 0.00 | 46 | 930.3 |
| 20260502201508 | 68 | 227 | 0.0 | 0.0 | 0.00 | 0.00 | 0.00 | 45 | 930.4 |
| 20260502200503 | 67 | 330 | 0.0 | 0.0 | 0.00 | 0.00 | 0.00 | 51 | 930.5 |
| 20260502200002 | 67 | 165 | 0.0 | 0.0 | 0.00 | 0.00 | 0.00 | 51 | 930.7 |
| 20260502195507 | 66 | 128 | 0.0 | 0.0 | 0.00 | 0.00 | 0.00 | 53 | 930.8 |
| 20260502195005 | 66 | 215 | 0.0 | 0.0 | 0.00 | 0.00 | 0.00 | 53 | 930.7 |
| 20260502194504 | 65 | 225 | 1.0 | 0.0 | 0.00 | 0.00 | 0.00 | 54 | 930.8 |
| 20260502194003 | 65 | 158 | 0.0 | 0.0 | 0.00 | 0.00 | 0.00 | 56 | 931.0 |
| 20260502193502 | 65 | 134 | 0.0 | 0.0 | 0.00 | 0.00 | 0.00 | 55 | 931.0 |
| 20260502193007 | 65 | 35 | 0.0 | 0.0 | 0.00 | 0.00 | 0.00 | 56 | 931.0 |
| 20260502192506 | 65 | 6 | 0.0 | 0.0 | 0.00 | 0.00 | 0.00 | 56 | 931.0 |
| 20260502192005 | 65 | 164 | 0.0 | 0.0 | 0.00 | 0.00 | 0.00 | 57 | 931.0 |
| 20260502191504 | 65 | 130 | 0.0 | 0.0 | 0.00 | 0.00 | 0.00 | 57 | 931.0 |
| 20260502191003 | 65 | 143 | 0.0 | 0.0 | 0.00 | 0.00 | 0.00 | 56 | 930.9 |
| 20260502190005 | 65 | 267 | 0.0 | 0.0 | 0.00 | 0.00 | 0.00 | 56 | 930.8 |
| 20260502185504 | 65 | 209 | 0.0 | 0.0 | 0.00 | 0.00 | 0.00 | 59 | 930.9 |
| 20260502185003 | 65 | 204 | 0.0 | 0.0 | 0.00 | 0.00 | 0.00 | 60 | 930.8 |
| 20260502184507 | 64 | 174 | 0.0 | 0.0 | 0.00 | 0.00 | 0.00 | 60 | 930.8 |
| 20260502184006 | 64 | 332 | 0.0 | 0.0 | 0.00 | 0.00 | 0.00 | 63 | 930.9 |
| 20260502183008 | 64 | 229 | 0.0 | 0.0 | 0.00 | 0.00 | 0.00 | 67 | 930.8 |
| 20260502182507 | 63 | 97 | 2.0 | 0.0 | 0.00 | 0.00 | 0.00 | 70 | 930.9 |
| 20260502181006 | 62 | 184 | 2.0 | 0.0 | 0.00 | 0.00 | 0.00 | 72 | 930.8 |
| 20260502180505 | 62 | 200 | 0.0 | 0.0 | 0.00 | 0.00 | 0.00 | 72 | 930.9 |